Theta_e
360 365 364 364 363 365 365 365 360 357 356 356 356 356 357 357 353 353 356 355 356 358 360 360 361 360 358 359 355 359 363 363 362 365 367 367 366 366 365 370 367 365 364 363 365 367 366 363 363 364 364 362 359 357 358 358 360 358 357 357 355 359 359 359 355 354 359 359 354 352 351 359 355 364 363 362 363 366 362 367 369 365 365 362 375
359 364 365 364 362 365 364 365 363 359 354 354 356 355 357 358 357 355 351 355 355 353 359 359 360 359 359 359 360 357 362 364 359 361 363 364 364 360 362 369 372 367 368 365 365 366 367 364 363 362 364 363 360 356 356 354 354 354 355 354 354 355 360 356 356 356 354 360 357 362 358 356 357 364 364 361 363 367 364 365 364 364 361 363 365
358 364 364 364 365 364 364 364 364 360 354 351 351 351 355 358 359 355 351 351 356 355 354 356 359 361 360 360 361 360 362 362 362 360 361 362 362 360 357 360 363 362 362 363 363 364 364 365 362 362 360 361 360 358 356 354 354 355 352 352 353 353 357 361 360 356 356 356 361 358 359 360 361 362 364 362 369 367 369 368 363 361 361 362 359
359 363 364 364 365 364 364 361 359 358 353 350 349 350 350 354 358 356 354 350 350 356 355 355 357 362 360 359 360 361 361 361 361 360 360 360 361 362 362 361 360 360 359 359 358 359 360 361 359 358 358 358 360 359 356 355 355 357 356 357 357 355 359 359 362 362 360 356 361 358 360 361 364 364 363 364 361 363 362 364 363 363 364 361 358
358 362 364 363 363 363 361 359 356 356 354 349 348 348 348 348 352 355 354 350 349 352 356 357 359 360 358 359 359 361 361 361 362 359 358 359 360 359 359 361 359 359 358 359 359 360 359 358 358 358 358 356 357 358 357 357 356 355 355 357 357 358 359 359 362 363 362 361 362 366 365 365 365 367 367 363 363 363 363 364 359 361 365 363 361
359 357 362 361 363 362 361 359 355 355 354 351 348 347 347 347 347 351 354 352 350 347 353 355 355 358 361 361 360 362 363 362 363 362 357 356 357 357 356 356 355 357 356 356 357 359 358 359 357 357 356 355 354 356 359 357 356 355 357 358 357 358 361 363 365 365 363 362 363 360 364 359 364 368 370 368 361 359 358 358 359 361 366 368 367
359 356 358 361 363 361 361 360 357 355 355 353 351 349 346 345 345 346 351 352 351 347 347 354 356 356 360 361 359 361 362 361 364 364 362 358 354 357 353 353 354 355 355 353 353 354 354 355 357 357 358 357 354 355 356 356 354 355 359 360 360 360 358 361 362 362 362 361 362 364 362 362 363 361 367 371 369 366 362 360 359 363 365 365 367
354 356 358 359 362 361 361 361 360 359 357 360 356 351 348 347 347 347 348 350 350 348 346 347 354 355 357 360 360 360 363 363 364 364 364 360 355 354 354 353 351 352 352 352 351 350 351 351 351 353 356 359 358 359 358 355 358 356 357 358 360 361 360 358 359 358 360 360 359 358 359 364 364 365 364 364 362 364 367 365 361 360 361 367 363
354 354 357 360 361 364 365 363 363 362 360 360 359 355 352 350 351 350 350 349 348 349 347 344 347 352 356 359 359 357 357 361 362 362 362 362 358 353 354 355 353 352 352 350 350 351 349 348 348 349 359 368 366 367 364 370 365 360 362 364 364 362 362 361 359 359 358 357 358 360 356 358 360 361 358 359 359 359 364 363 360 358 359 358 366
355 356 355 358 360 363 366 367 365 365 363 361 363 362 357 352 349 349 350 349 352 352 352 349 345 347 352 356 358 355 353 355 360 353 355 362 360 351 352 354 356 353 352 351 348 348 348 347 345 361 367 371 370 365 361 362 365 362 364 365 365 364 363 362 362 359 358 356 355 356 354 353 353 359 357 357 360 362 357 359 358 360 363 361 363
351 350 355 357 360 362 364 365 366 367 367 364 365 366 363 358 356 360 356 354 357 361 354 349 346 345 347 351 354 353 351 349 349 339 340 346 358 357 352 353 356 355 353 356 354 348 346 346 346 351 369 371 372 361 357 353 355 355 356 358 364 371 365 361 361 361 358 355 356 356 353 353 353 355 354 351 352 351 350 357 354 357 358 356 354
352 354 354 357 360 361 361 362 365 366 367 368 367 367 365 364 363 361 355 353 361 355 353 352 353 347 345 347 349 352 352 348 335 335 337 337 348 358 352 349 347 350 354 352 351 351 348 344 343 342 345 349 351 370 363 354 350 351 349 350 350 349 352 363 368 364 362 359 356 355 353 353 354 356 351 349 353 352 355 354 360 357 357 356 356
351 351 355 358 358 359 361 360 362 364 366 368 368 367 367 365 362 359 355 356 357 361 362 356 355 352 348 348 345 347 351 342 330 333 335 335 336 349 347 347 345 346 348 353 354 353 354 352 348 345 340 363 360 350 369 368 350 345 348 348 349 348 341 339 343 362 368 367 362 360 359 359 357 358 356 355 359 354 357 353 361 359 358 356 358
352 352 353 356 359 359 359 360 359 363 365 367 366 365 365 365 362 359 358 359 359 359 359 360 359 361 356 354 352 347 348 344 328 329 331 331 333 341 354 345 344 344 349 349 350 355 360 358 354 353 353 352 358 358 360 364 372 366 362 362 362 360 348 340 338 339 349 359 359 357 361 364 361 364 368 366 361 359 355 352 359 357 358 358 362
349 351 353 354 356 356 359 358 359 362 362 364 363 363 365 365 363 360 357 357 358 360 359 360 361 361 359 357 355 350 348 335 325 326 327 327 330 336 357 350 345 343 344 346 354 355 360 358 359 358 360 359 354 355 354 360 365 369 371 366 364 363 364 361 358 357 357 357 358 359 361 363 366 366 369 370 366 367 366 366 364 365 367 368 367
342 345 348 349 353 356 359 360 359 359 361 363 361 360 361 363 363 362 360 356 356 358 361 361 360 360 360 359 357 355 353 333 324 323 324 325 328 348 357 357 352 349 346 349 352 356 357 355 359 361 362 365 360 348 353 361 360 362 363 366 367 365 362 361 349 350 358 358 360 359 357 358 350 364 371 362 369 372 367 363 364 366 363 361 359
339 340 343 346 348 350 351 352 356 361 360 359 359 359 360 361 362 364 361 358 354 354 358 359 362 360 360 361 359 359 357 343 323 320 321 323 330 353 357 356 355 353 353 354 355 355 352 357 363 355 357 363 353 336 336 352 360 358 360 359 357 354 354 360 345 338 339 337 337 340 339 338 336 334 331 332 363 365 371 362 359 360 357 353 353
337 339 339 341 343 346 348 351 354 355 359 358 357 359 361 359 359 361 361 360 357 354 355 357 360 361 360 359 359 359 359 348 322 318 318 319 335 354 357 355 355 356 356 357 357 357 359 356 363 358 357 360 343 332 332 349 363 358 356 354 353 353 354 353 352 356 333 333 333 334 335 336 337 336 336 334 333 348 365 358 353 351 349 349 346
336 336 338 340 341 344 347 351 353 353 355 356 357 352 352 353 358 363 360 357 359 360 359 355 355 358 358 358 359 358 358 351 322 318 317 317 333 356 357 355 354 355 355 357 359 358 358 358 357 355 357 356 337 330 329 346 362 360 358 356 351 349 348 353 354 353 362 361 361 358 356 348 355 361 362 341 339 353 364 363 358 352 348 347 349
338 338 338 338 340 342 345 347 350 352 354 355 357 351 355 354 353 354 356 356 355 359 357 358 356 355 356 356 357 358 358 360 352 317 316 315 320 355 359 355 353 354 356 356 358 359 359 359 358 334 331 333 332 326 323 327 359 362 361 356 354 352 351 353 362 357 361 366 365 365 364 364 363 364 365 365 362 360 361 361 360 357 354 353 351
339 339 338 337 339 342 344 345 346 348 351 353 358 352 351 352 353 352 353 353 355 354 354 357 357 356 355 356 356 357 358 359 368 317 315 314 316 330 355 356 356 356 356 357 357 357 359 360 361 342 326 325 325 323 319 319 334 364 363 361 359 359 359 358 359 364 358 363 366 365 366 367 366 365 363 364 362 363 361 359 359 359 358 354 349
337 338 338 337 338 340 342 344 345 346 350 354 356 354 355 355 354 355 356 355 355 353 355 356 357 356 356 357 357 357 359 357 360 325 316 313 314 317 348 353 356 357 357 358 359 359 359 360 363 350 325 323 322 322 318 318 320 356 367 338 336 337 365 365 364 361 360 359 357 356 357 358 358 359 358 358 359 364 364 363 361 360 359 357 354
336 336 337 338 338 339 341 342 343 346 348 352 354 355 357 356 354 354 354 355 355 356 357 358 358 356 358 359 361 360 363 364 341 349 317 313 311 313 322 340 334 362 356 357 359 359 362 363 364 354 324 319 318 319 319 318 322 342 333 330 328 329 346 362 362 361 361 360 360 360 362 359 357 356 356 355 356 360 357 360 365 363 361 360 360
335 335 336 337 337 339 340 341 342 345 348 351 353 354 355 356 354 354 354 352 352 353 353 356 358 358 357 357 358 359 364 363 354 340 333 312 312 311 314 319 328 350 357 355 358 360 362 363 361 339 319 313 314 317 318 320 336 325 322 325 327 333 355 360 357 358 358 356 358 359 360 358 358 358 358 359 356 366 367 364 362 360 365 363 365
334 333 334 334 336 336 337 340 342 344 346 347 348 351 353 355 354 355 355 354 353 352 353 356 357 357 359 358 360 361 364 366 367 352 327 316 312 310 312 315 317 319 349 355 360 358 345 332 326 328 320 313 313 315 318 318 317 322 322 323 331 351 356 357 356 356 355 356 355 358 358 360 361 362 365 368 370 370 371 363 361 360 359 361 368
333 333 333 333 334 335 335 338 340 342 342 344 346 349 351 352 352 353 355 353 354 354 355 356 354 353 351 351 352 354 355 357 359 365 348 328 319 313 313 313 318 318 328 347 338 332 324 323 324 327 322 320 333 341 346 345 323 319 321 327 344 350 353 355 356 354 354 354 355 356 357 359 359 363 370 371 367 364 364 364 362 360 360 359 361
331 332 332 332 333 334 335 335 336 339 342 342 343 346 350 351 350 351 352 352 352 353 351 350 347 347 347 347 347 347 350 357 360 366 367 358 347 337 323 324 317 318 327 338 336 344 348 348 348 338 337 333 334 340 342 344 342 335 335 339 345 350 352 354 355 356 355 356 355 357 359 360 362 365 366 365 364 366 366 364 361 360 362 362 364
330 330 331 332 333 333 334 334 335 334 337 339 339 341 344 346 346 348 350 351 347 348 349 348 347 346 347 348 349 349 349 353 361 361 360 363 361 356 346 343 341 338 339 343 348 350 351 343 344 356 358 358 354 354 357 359 357 352 350 348 349 350 351 350 353 358 360 361 359 360 359 363 361 358 358 360 360 362 366 362 361 361 361 362 361
330 330 330 331 331 333 334 335 334 333 334 337 339 341 340 340 341 345 350 350 349 347 348 345 344 347 351 351 348 347 349 352 358 336 349 322 343 358 358 353 352 351 348 335 355 354 354 352 349 351 352 351 351 353 354 355 356 358 358 357 356 355 354 353 353 354 357 359 359 360 359 360 359 359 357 357 361 362 367 368 370 366 368 364 357
328 328 329 329 330 331 332 332 332 332 333 334 335 337 336 324 332 339 338 338 331 321 321 341 345 348 348 349 351 349 350 355 333 319 314 314 314 320 326 328 332 347 332 321 335 343 344 343 344 346 349 352 353 353 354 355 356 356 356 345 354 355 354 353 354 354 357 357 358 359 360 359 359 359 359 356 360 359 362 355 368 369 365 361 359
325 325 327 328 328 329 329 330 332 333 333 333 333 332 333 337 315 309 317 322 318 312 306 306 309 314 332 341 342 328 324 318 313 312 312 315 312 309 312 312 315 316 316 332 337 338 339 342 344 345 346 349 351 353 355 356 355 355 356 355 356 355 352 354 356 354 353 354 357 358 358 358 358 359 358 358 359 359 360 363 364 367 362 360 359
324 324 326 326 328 329 329 330 331 331 331 331 331 330 331 331 334 321 305 310 311 306 304 303 302 303 305 313 328 338 326 315 310 311 310 307 308 308 305 308 308 308 309 319 340 339 341 343 345 346 348 349 350 352 355 357 357 358 357 354 354 355 356 356 356 358 356 356 356 355 358 358 359 357 358 356 355 358 358 358 358 358 358 359 359
325 325 326 326 326 328 327 329 329 330 329 329 329 329 329 328 328 331 343 306 303 306 306 305 303 302 303 302 301 306 313 316 314 311 307 304 303 305 303 303 305 306 307 328 340 341 343 344 345 348 350 351 354 356 357 359 358 358 358 355 353 354 357 361 360 361 358 358 358 357 357 357 357 356 354 355 358 355 356 356 357 357 356 356 355
324 324 324 324 325 325 326 327 328 328 329 329 329 327 328 329 329 330 329 332 340 324 308 303 302 303 301 300 300 300 301 302 302 302 300 301 305 306 305 314 303 301 315 340 340 341 343 346 347 349 351 353 355 356 358 359 359 360 360 359 358 359 365 370 368 360 357 358 358 357 357 359 357 359 358 358 357 357 357 356 356 355 355 353 353
324 325 326 326 324 324 325 326 326 327 327 328 327 327 328 328 329 328 329 331 331 331 336 346 321 299 329 328 318 306 303 301 301 301 300 300 303 301 303 326 328 322 320 335 342 342 342 344 346 349 352 353 355 356 358 360 360 359 360 361 361 360 363 361 360 364 361 360 359 359 358 357 359 357 356 357 356 355 355 355 356 355 355 355 355
325 324 323 323 323 324 325 326 326 326 326 327 328 327 326 327 327 329 328 329 330 332 334 335 337 326 318 311 306 303 305 305 304 301 299 299 300 302 327 333 336 337 332 331 337 342 344 346 348 351 354 355 358 358 359 359 360 360 362 361 359 360 361 360 358 361 364 362 361 360 355 361 359 359 359 358 358 357 356 355 355 355 355 356 354
323 322 323 322 323 323 323 325 326 325 323 323 325 325 327 327 328 329 329 329 330 331 331 333 335 336 332 338 326 314 306 306 307 306 300 298 298 316 336 338 340 340 337 337 338 340 343 346 348 351 353 356 358 361 362 360 359 360 353 362 363 363 361 361 360 359 363 361 361 363 364 362 361 362 360 357 355 356 356 356 355 350 350 348 342
323 323 323 323 324 325 323 323 323 321 322 323 325 327 326 327 327 327 327 328 329 328 329 331 330 331 332 336 333 328 323 314 312 312 298 297 309 326 333 339 343 343 341 341 341 342 343 346 350 353 354 357 356 355 357 358 361 360 359 359 362 365 349 361 361 365 367 363 361 361 362 362 363 361 359 359 357 356 355 354 352 351 351 347 348
322 321 320 320 320 321 320 319 321 321 323 323 324 325 325 325 325 325 326 327 327 326 327 328 329 328 330 330 325 323 323 329 331 335 339 344 345 341 340 341 344 343 342 343 346 345 346 348 350 350 351 352 352 355 356 355 353 350 350 354 356 359 361 362 362 366 362 362 362 362 361 361 362 364 359 355 353 356 356 355 353 353 352 352 354
321 321 320 321 320 320 320 320 320 321 322 322 322 323 323 324 324 324 325 325 324 325 325 325 326 328 326 319 315 315 318 322 326 330 334 338 336 331 334 338 343 345 345 345 346 348 349 348 347 347 349 353 354 354 352 351 353 353 355 354 353 352 357 361 361 362 362 363 362 363 361 364 369 360 358 357 357 358 359 356 354 353 354 352 353
319 319 320 318 318 318 319 319 320 320 322 321 321 322 322 322 323 323 323 323 323 323 323 324 324 325 317 307 301 302 313 320 325 327 327 325 324 325 323 322 321 321 321 322 323 325 330 338 346 349 352 352 354 351 349 349 351 352 351 349 349 352 356 361 360 359 364 364 363 363 364 366 360 358 356 357 346 353 359 356 355 353 351 350 352
317 317 317 318 318 319 319 318 319 320 321 321 320 320 321 321 321 321 320 320 321 321 321 321 322 323 311 300 302 297 310 320 320 319 318 318 319 318 317 315 315 315 315 316 316 316 318 321 326 330 331 330 330 330 329 334 338 343 350 354 353 352 355 361 359 360 359 359 361 363 360 363 359 355 355 342 357 358 359 357 357 356 355 353 351
317 317 317 318 318 318 318 318 319 319 319 319 319 320 320 320 319 319 319 319 318 318 317 318 319 320 317 308 307 304 314 315 314 313 312 312 312 312 313 312 311 311 311 312 313 312 313 315 316 318 320 321 322 321 323 324 324 327 331 334 337 341 342 344 349 351 350 352 355 356 361 359 355 355 355 352 354 355 356 356 353 354 352 353 353
315 316 316 316 317 317 318 317 318 318 318 318 318 318 317 318 318 318 317 317 317 316 315 315 316 316 315 313 310 310 310 309 309 309 309 309 308 308 308 308 307 308 308 309 309 310 311 312 313 313 314 315 315 315 315 316 318 321 321 323 323 323 328 333 334 333 332 332 331 335 344 352 354 355 354 350 354 354 355 355 352 351 351 352 350
313 314 314 315 316 316 316 317 318 317 317 317 317 317 318 318 317 316 316 315 315 314 313 313 313 312 312 312 311 310 310 308 307 307 306 306 306 305 305 305 305 305 306 306 307 308 309 309 309 310 311 312 311 311 312 312 313 314 315 316 316 318 319 321 322 323 323 325 327 328 331 334 341 348 351 353 352 353 353 354 354 343 349 348 346
311 312 312 313 314 315 315 316 317 316 315 314 315 315 315 316 316 316 315 313 312 311 311 311 310 310 309 309 309 309 308 307 306 306 305 304 304 303 304 304 305 305 305 305 306 306 307 307 307 308 308 309 310 310 311 311 311 312 312 312 313 314 315 316 317 318 319 322 325 328 329 330 332 334 336 340 345 349 352 353 353 350 349 347 345
310 311 311 312 312 313 314 315 314 314 314 313 314 313 313 313 314 313 313 311 310 310 310 309 308 307 307 307 307 307 306 306 305 304 303 302 303 303 303 304 305 305 305 306 306 306 306 307 307 307 308 308 309 309 309 309 310 310 311 312 312 312 311 309 308 311 315 319 322 325 327 328 331 333 336 336 338 341 343 345 346 347 347 345 344
309 309 310 311 311 312 312 313 313 313 312 312 312 312 312 312 311 311 311 311 310 309 307 307 306 305 305 305 305 305 305 305 304 304 302 302 303 304 304 304 303 303 304 304 304 305 305 305 306 307 307 307 307 307 308 308 308 307 307 307 307 304 300 298 304 308 313 319 323 324 325 327 329 331 333 336 338 339 341 343 343 343 343 342 341
307 308 308 309 310 310 310 310 311 310 309 309 309 309 310 310 310 310 310 309 308 307 306 305 305 304 304 304 304 304 304 303 303 303 302 301 302 302 304 303 303 302 302 302 303 303 304 304 305 306 307 308 308 308 307 306 304 304 303 303 301 296 293 295 300 309 304 309 315 320 323 326 328 330 333 334 335 337 339 341 343 340 338 339 340
306 306 307 308 308 309 309 309 308 308 308 308 307 308 308 308 308 308 308 308 307 305 304 303 303 303 302 301 302 302 302 301 300 300 301 301 301 302 302 302 302 302 302 302 303 304 304 305 305 306 307 308 308 308 307 306 305 303 302 300 294 292 292 294 299 300 304 314 320 326 328 328 328 328 329 330 332 333 335 336 337 337 339 339 338
305 305 306 307 307 307 307 307 307 307 306 306 305 305 305 305 306 307 306 305 304 304 303 302 302 301 301 301 301 301 300 300 300 300 300 301 301 301 301 301 301 302 302 303 303 303 303 303 304 304 304 304 305 306 306 305 305 303 297 294 292 291 293 295 304 298 297 301 324 325 325 324 324 324 324 323 325 324 321 320 319 318 319 320 323
Wind_Speed
16 14 14 13 13 14 14 14 14 13 13 12 11 11 11 10 10 9 8 8 9 10 9 8 8 8 8 7 8 7 7 7 7 7 6 6 5 7 8 6 6 6 6 8 5 4 4 5 5 5 5 5 4 5 5 5 5 4 3 2 3 4 4 3 3 4 4 4 4 5 4 4 4 2 5 5 5 2 4 5 5 7 5 4 8
14 14 13 13 14 14 14 14 13 12 14 13 13 11 11 11 10 10 10 10 9 10 11 10 10 9 9 8 7 7 7 7 8 7 7 7 8 6 6 6 6 6 6 6 6 5 5 6 6 6 6 6 6 6 6 6 7 6 6 5 4 3 4 3 4 4 4 4 5 3 5 4 6 3 4 5 5 5 6 5 6 5 3 5 2
15 14 13 13 14 14 13 13 13 14 14 13 14 14 12 12 11 11 11 11 10 10 10 11 10 10 9 8 8 8 7 8 8 7 7 8 8 8 7 8 8 7 7 7 7 7 7 6 7 7 6 7 7 6 6 6 6 5 6 6 6 5 4 4 3 5 6 5 4 6 5 3 4 5 6 5 5 5 5 6 6 5 4 4 6
15 14 13 14 15 14 13 13 14 14 14 13 14 15 13 13 12 12 12 11 12 11 10 10 10 9 10 10 9 9 9 9 8 8 8 8 8 8 7 6 7 8 8 8 8 8 8 7 7 7 7 7 6 6 6 7 5 5 5 5 5 5 4 4 5 5 5 6 5 6 5 6 6 6 6 5 6 5 5 5 6 6 5 6 6
13 14 14 15 15 14 14 14 14 15 14 13 14 14 14 13 13 13 13 12 12 12 11 10 10 10 11 11 11 10 10 10 9 10 9 9 9 9 8 8 8 8 8 8 8 7 8 8 7 7 7 7 7 7 7 8 7 6 6 6 6 6 6 6 6 6 6 7 6 5 6 6 7 7 7 6 5 5 5 5 6 6 5 6 7
12 13 13 13 13 14 14 14 15 15 14 14 14 14 13 13 13 13 13 13 12 12 13 12 11 12 12 12 12 11 11 10 10 10 11 10 10 9 9 9 9 8 9 9 8 8 8 8 9 8 9 8 8 7 7 9 8 8 8 7 6 6 6 6 6 6 7 7 7 7 6 8 7 6 5 5 7 6 5 5 5 5 5 6 5
12 11 12 13 12 13 14 14 13 14 14 13 12 13 13 13 14 13 13 13 13 13 13 13 12 13 13 13 13 12 12 12 10 10 10 10 10 10 10 10 9 8 9 9 9 9 10 9 9 9 9 9 9 9 9 9 8 8 7 8 7 7 7 6 7 7 7 8 8 8 7 7 7 7 6 6 6 6 6 6 6 5 4 4 5
12 11 10 11 11 12 12 13 13 12 12 11 12 13 13 13 12 12 11 14 14 14 14 14 13 13 13 13 13 12 12 12 12 11 11 11 11 10 10 10 10 10 9 10 10 10 10 10 10 10 10 10 10 10 9 8 7 8 7 7 7 8 8 7 7 7 7 8 8 7 7 5 5 6 6 6 7 7 7 7 6 5 5 4 6
11 11 10 9 9 10 9 10 11 11 12 11 12 12 12 12 11 11 11 12 13 13 14 14 14 14 13 13 13 13 13 13 11 12 12 12 12 12 11 11 11 10 10 11 11 10 10 10 10 11 9 11 13 10 9 4 5 7 6 6 7 7 8 8 7 7 7 8 8 7 7 7 7 7 7 6 7 7 5 5 6 6 6 6 5
8 6 7 7 8 8 8 8 9 10 11 12 12 12 13 13 13 13 12 12 11 11 11 12 14 14 14 14 14 13 12 12 12 16 14 12 13 12 11 10 10 10 10 10 11 11 12 11 10 11 9 10 13 13 12 10 7 8 6 5 7 8 8 8 8 7 7 8 8 8 8 8 8 7 7 7 6 5 7 6 7 6 6 6 5
9 10 8 7 8 7 7 8 9 9 9 11 11 11 12 12 11 10 11 11 11 9 10 13 14 14 15 14 15 13 13 12 16 17 17 16 13 12 11 10 11 11 12 10 10 12 12 12 11 11 8 7 9 13 14 15 15 13 11 10 7 6 8 10 9 8 8 8 8 9 9 9 9 8 8 8 7 7 7 5 6 6 6 7 7
10 9 7 10 8 7 7 8 9 9 9 10 10 11 11 11 10 11 12 13 11 13 13 13 11 13 13 14 15 14 13 14 17 19 19 18 15 12 13 12 12 12 12 13 12 12 12 12 12 11 11 12 11 11 13 16 16 15 15 14 14 14 11 8 7 7 9 9 9 9 9 8 7 7 7 7 6 5 5 5 5 5 6 7 7
6 10 9 9 9 7 7 9 10 9 10 10 10 10 11 11 12 13 14 13 13 12 12 13 13 13 13 12 14 15 14 14 16 20 20 20 20 16 13 13 13 13 13 13 13 12 10 11 12 11 11 12 12 12 10 12 14 17 16 16 15 14 14 15 13 10 8 9 9 9 9 8 8 8 7 7 5 7 6 6 6 6 6 8 8
4 5 9 8 7 6 7 8 9 9 9 9 11 12 12 12 13 13 13 13 13 13 15 14 13 12 13 13 12 13 14 12 19 20 20 20 20 17 14 15 14 14 13 13 13 12 11 11 11 11 11 10 8 9 9 10 10 11 11 10 11 14 16 18 17 17 14 12 11 11 10 8 9 8 7 6 7 7 7 7 7 7 7 8 8
9 9 9 9 6 5 6 8 9 9 9 10 10 12 12 13 14 13 13 14 14 14 14 15 14 14 15 14 14 15 15 13 17 21 21 21 21 16 14 15 13 13 14 14 11 11 10 11 13 13 10 10 10 10 11 11 11 10 11 13 13 13 13 14 15 13 13 13 15 15 13 11 10 10 8 7 8 7 7 8 7 7 7 8 8
10 11 10 9 10 8 7 7 7 7 9 9 10 13 13 13 14 12 12 13 13 13 13 13 14 15 15 15 15 16 16 17 17 19 20 20 21 12 13 13 14 13 13 13 12 10 11 12 11 12 11 11 11 13 12 11 11 12 12 12 12 12 13 14 16 16 15 15 15 15 15 15 13 11 9 9 8 8 9 9 9 8 8 8 9
11 10 11 12 12 11 9 9 9 7 8 11 12 14 15 14 14 12 13 13 14 14 14 14 12 14 15 15 16 14 15 15 18 20 21 22 15 10 12 12 13 14 13 12 12 12 13 12 12 13 13 12 13 13 14 12 12 13 12 13 12 13 13 11 17 20 19 19 18 19 17 15 14 10 7 5 6 5 5 6 7 7 8 9 9
11 11 11 11 11 12 11 10 10 9 9 10 11 11 11 12 12 12 12 12 12 14 14 12 13 13 15 16 15 15 15 15 18 20 21 21 17 12 11 12 13 12 12 13 12 11 13 17 14 14 14 13 14 14 15 13 12 13 13 13 13 14 13 13 9 13 23 23 23 20 19 18 16 11 7 7 6 4 7 10 11 9 10 10 10
10 11 12 12 11 11 11 11 11 11 11 11 5 8 11 10 9 9 8 10 8 9 9 12 13 13 14 16 15 16 16 14 17 19 21 21 18 11 12 11 12 12 12 12 12 12 13 12 17 15 14 14 14 13 16 13 13 14 14 13 14 15 14 12 13 11 7 9 9 11 10 10 9 8 9 14 12 9 8 11 10 10 10 11 9
9 9 10 11 11 11 11 11 11 11 12 11 0 1 5 5 5 9 8 7 8 10 10 11 12 13 14 15 15 16 16 15 14 21 20 21 22 13 11 11 13 13 13 12 11 12 12 13 13 18 20 17 15 13 15 17 14 14 13 13 14 15 12 12 11 11 9 9 12 12 13 13 12 11 11 12 11 12 12 12 12 12 11 11 11
10 9 9 10 11 11 11 11 13 13 12 11 6 4 4 7 6 6 6 6 9 10 11 11 12 14 15 15 15 17 15 16 12 20 21 22 23 19 12 13 13 12 12 12 12 12 12 12 13 15 21 21 19 16 15 17 17 14 14 13 14 9 4 10 11 13 12 10 8 9 10 9 10 10 11 11 12 12 13 14 14 13 12 12 12
10 10 10 10 11 11 11 11 11 11 11 10 7 2 6 9 9 8 6 7 9 10 9 9 11 14 14 14 15 16 15 16 14 17 21 22 22 24 15 16 14 13 12 12 12 12 12 12 11 12 18 21 21 20 19 16 18 12 15 17 15 11 9 8 9 9 10 10 12 11 10 10 11 11 12 12 12 12 12 12 14 14 14 14 13
10 10 10 9 9 10 11 11 10 9 9 9 9 7 6 7 7 7 8 8 9 8 8 10 12 13 14 13 12 12 12 11 14 11 19 22 23 22 22 17 14 12 13 12 12 12 11 12 12 13 16 19 21 21 20 19 13 13 20 18 15 14 7 8 9 10 10 10 10 9 8 10 10 10 11 11 11 10 11 11 12 14 13 13 13
9 10 9 9 9 9 10 11 10 10 10 9 9 8 6 6 7 6 7 9 10 9 9 11 12 13 13 14 13 12 10 12 12 13 15 20 19 22 22 22 16 13 13 13 12 12 11 11 9 11 13 17 19 19 19 18 15 19 19 19 18 12 8 9 10 11 10 11 11 11 10 10 10 11 10 10 10 8 9 9 9 11 13 12 12
9 9 10 9 9 8 9 10 10 8 10 10 10 9 7 7 7 7 8 7 9 11 11 11 12 12 10 10 10 11 9 8 10 9 17 20 22 22 23 24 22 17 13 14 12 12 11 6 8 6 11 15 18 17 16 18 22 20 20 20 16 9 10 11 12 12 12 12 12 12 12 11 11 11 10 9 8 7 8 9 10 11 11 10 11
10 10 10 10 10 9 10 9 9 10 10 9 10 9 8 7 8 7 7 8 9 9 9 9 9 9 8 9 10 11 10 12 13 12 8 13 16 22 25 24 23 22 19 16 16 12 12 14 6 1 3 7 8 7 8 10 17 20 19 15 10 11 11 12 12 13 14 13 13 13 13 12 12 12 10 9 8 10 9 9 9 10 11 10 9
11 11 10 10 10 9 9 8 8 9 10 8 8 9 8 7 7 7 7 7 5 6 7 6 6 8 10 9 10 9 10 10 11 11 6 6 7 9 11 12 14 11 9 11 12 11 11 10 9 9 7 8 12 11 11 12 12 11 9 10 11 12 12 13 14 13 13 13 13 12 12 12 11 10 10 10 11 10 10 9 11 11 10 9 9
10 11 12 11 10 9 8 8 9 7 9 10 9 8 9 8 8 8 8 5 5 5 4 5 5 7 7 8 9 10 10 10 7 5 10 12 8 6 7 8 8 8 9 8 6 6 6 7 9 10 10 8 8 7 9 10 10 9 10 10 11 13 15 15 14 13 12 12 12 12 11 11 12 12 12 12 12 11 10 11 10 11 11 9 9
10 11 11 10 9 8 8 7 7 7 8 9 10 9 9 9 10 11 10 7 8 8 6 5 6 6 5 6 8 10 10 10 4 3 2 4 6 5 2 6 7 8 8 8 6 5 5 4 8 11 12 13 14 13 13 14 14 14 15 13 12 13 14 14 15 15 14 13 14 13 13 13 13 12 12 13 11 11 10 10 10 10 10 11 12
9 10 10 9 9 8 7 8 8 7 8 8 10 11 12 11 9 9 10 9 5 9 7 8 7 5 6 7 6 8 9 8 6 8 12 8 12 12 9 7 7 7 11 12 7 6 6 8 10 11 12 13 14 15 16 14 14 15 16 14 14 15 15 14 15 15 13 13 13 13 13 13 13 13 13 13 11 11 11 11 11 11 11 12 13
10 10 10 9 8 8 8 8 8 7 7 8 9 10 11 11 11 14 14 14 15 16 15 14 12 10 9 8 9 11 13 15 17 18 20 20 12 14 16 12 11 12 12 9 7 9 9 10 10 10 11 13 14 15 14 14 14 15 16 15 15 15 14 15 14 13 13 14 14 14 13 13 13 12 13 13 13 12 12 11 11 11 12 13 13
11 11 10 10 9 9 8 8 9 8 8 9 9 10 10 11 12 9 13 14 14 17 18 16 13 13 13 12 9 9 12 14 14 18 19 15 14 11 10 13 13 12 14 16 9 9 8 8 8 9 10 12 14 13 14 15 14 15 16 16 16 14 14 15 13 13 14 14 13 13 14 14 13 13 13 13 12 13 13 12 13 13 12 13 13
11 12 11 11 10 10 9 9 9 8 9 9 10 9 9 10 11 12 8 10 16 15 16 16 15 14 14 14 16 15 13 12 14 19 18 13 7 4 7 10 13 13 12 9 10 9 10 10 10 10 11 13 13 14 15 15 16 16 16 14 14 13 13 13 13 13 13 13 13 13 13 13 13 13 13 13 13 14 13 13 13 13 12 13 12
13 12 11 11 11 10 10 10 9 9 9 9 9 10 9 9 9 10 12 12 8 8 13 17 17 14 11 11 12 14 17 19 18 16 15 11 1 5 11 7 6 9 15 12 11 11 10 9 10 10 11 12 13 14 14 15 15 16 15 14 14 12 10 10 11 13 14 13 14 13 12 14 13 14 14 14 14 14 14 14 14 14 14 14 13
12 12 16 14 12 11 10 10 10 9 9 10 10 10 10 10 9 9 10 11 11 11 9 7 8 10 5 5 9 7 4 8 11 14 14 7 8 10 8 4 4 4 8 10 11 11 10 10 10 10 11 13 14 15 15 15 14 16 16 14 14 14 11 12 13 11 12 13 14 14 14 14 15 14 13 14 14 15 15 15 16 15 14 13 13
9 10 11 13 11 10 10 10 9 9 10 10 10 10 10 9 9 8 9 10 11 11 11 9 8 6 10 10 3 5 8 11 8 8 11 9 11 14 7 9 9 9 11 12 12 12 10 10 10 11 12 14 16 16 15 15 15 17 15 14 14 13 13 14 13 12 12 14 14 14 13 14 14 14 15 15 15 15 14 14 14 13 14 14 11
10 11 11 11 10 9 10 9 9 9 9 10 11 10 9 9 9 9 9 9 9 10 11 11 10 7 7 2 7 8 10 13 14 9 7 10 13 12 6 7 7 7 9 10 10 10 10 11 11 12 13 14 16 15 12 9 9 13 13 13 13 14 15 14 14 12 12 13 14 12 13 15 15 14 14 15 14 14 15 14 13 12 10 10 8
9 8 9 10 8 7 8 9 11 11 10 10 10 10 10 10 10 10 9 9 9 10 9 10 10 10 9 5 9 7 9 10 12 4 9 6 6 6 6 7 7 8 10 10 9 8 10 10 9 9 11 12 11 10 9 9 9 10 11 10 10 11 13 12 11 11 11 13 15 14 13 15 14 15 14 14 14 14 14 13 14 13 11 10 8
8 10 10 7 6 9 12 12 11 11 10 10 10 10 10 10 10 10 10 9 9 9 9 9 9 9 9 8 8 9 9 5 4 5 5 4 2 4 5 6 6 7 9 9 7 6 8 9 6 7 9 8 10 11 10 9 9 11 13 13 11 12 11 11 13 12 14 15 15 15 15 14 14 8 3 6 11 14 13 13 14 13 10 9 10
8 9 8 7 6 7 9 11 11 11 11 10 10 10 10 9 9 9 9 10 10 10 9 9 8 8 6 8 8 10 10 7 5 5 6 5 6 8 8 6 4 4 7 8 8 7 7 7 10 11 10 10 10 9 8 7 8 12 11 8 9 10 12 10 10 11 12 12 13 11 12 11 2 2 7 11 12 12 11 11 12 11 10 11 11
9 9 9 10 10 10 11 11 11 11 10 10 10 10 10 10 9 9 9 9 9 9 8 9 8 6 4 6 8 8 9 9 6 4 4 5 6 6 5 5 6 6 7 7 8 8 7 6 7 7 6 6 5 6 9 9 10 10 10 11 12 13 14 12 9 10 11 9 9 9 10 6 2 7 11 10 9 9 10 10 11 12 11 10 11
9 10 10 10 10 10 10 10 10 10 10 10 10 10 10 9 8 8 8 8 8 8 9 8 7 7 4 9 7 8 9 8 5 3 3 5 5 5 4 3 4 4 4 4 6 7 7 7 7 6 6 6 6 7 9 9 9 8 7 6 8 12 12 9 8 11 10 10 11 10 7 3 6 10 8 6 9 10 10 10 10 10 10 10 10
10 10 10 10 10 11 10 10 9 10 9 9 10 9 9 8 9 8 8 7 7 8 8 8 8 7 6 4 5 8 6 5 6 4 3 3 4 5 5 4 4 4 4 4 4 5 6 7 7 6 5 5 5 5 6 5 5 6 6 6 5 5 7 8 8 8 7 6 6 7 6 4 7 7 7 7 8 8 9 9 10 11 12 12 11
9 9 10 10 10 10 10 10 9 9 9 9 9 9 10 10 9 8 8 7 7 7 7 7 7 7 7 6 5 6 5 5 5 5 4 2 3 4 5 5 5 5 4 4 4 5 5 6 7 6 5 4 4 4 4 4 4 5 6 8 7 7 7 6 7 7 7 6 7 7 8 8 7 7 7 8 9 11 12 12 12 12 12 12 11
9 9 9 9 10 10 9 9 9 9 9 8 9 10 9 8 9 8 8 7 6 6 6 7 7 6 6 6 6 6 5 5 5 5 4 3 3 4 4 5 5 5 5 5 5 6 6 6 7 7 8 6 6 6 6 5 5 4 4 5 6 7 6 6 6 6 5 6 6 7 8 8 9 9 10 10 10 11 12 12 12 11 13 12 11
9 9 9 9 9 10 10 10 9 9 8 8 9 9 9 9 8 8 7 7 6 6 6 6 6 6 6 6 6 6 6 6 5 5 5 5 4 4 4 5 6 6 7 7 7 7 7 7 7 8 8 8 9 8 7 7 7 7 7 7 7 7 7 8 8 7 7 6 5 5 7 8 9 9 10 10 10 10 11 11 11 11 11 12 12
10 9 9 9 9 9 10 9 9 7 7 8 8 9 8 9 8 7 7 6 6 6 6 5 6 6 6 6 6 6 6 6 6 6 5 5 5 6 6 6 6 6 6 7 7 8 8 8 9 9 9 9 9 9 9 9 8 8 8 8 8 9 8 9 9 10 10 9 8 7 7 9 11 11 12 11 11 11 12 12 11 12 12 11 10
9 9 9 9 9 9 9 9 9 8 7 7 8 8 8 8 7 7 6 6 5 5 5 5 5 5 6 6 6 6 7 7 7 7 7 7 7 7 7 8 7 7 6 7 7 7 7 7 8 8 8 9 9 9 9 9 8 8 8 7 8 8 11 11 7 7 8 9 9 9 9 9 9 10 11 11 11 12 13 13 12 11 13 13 12
8 8 8 8 8 9 8 8 7 7 7 6 6 7 7 7 7 6 6 5 5 4 4 5 4 5 5 6 6 6 6 6 6 6 6 6 7 7 7 7 7 6 7 8 8 8 8 8 8 8 8 7 7 8 8 8 9 9 9 8 11 16 15 14 8 6 9 9 10 10 9 9 10 10 10 11 12 11 12 13 11 9 9 11 11
7 8 8 8 8 8 7 7 7 6 6 5 5 6 6 7 7 6 6 5 4 4 4 4 4 4 4 5 5 5 5 5 6 6 6 5 5 6 6 6 6 7 8 8 8 7 7 7 7 7 7 8 7 7 8 8 9 9 9 10 15 16 15 15 13 13 9 6 8 7 7 7 8 7 8 8 9 9 9 9 9 9 9 10 10
8 8 8 7 7 7 7 6 6 6 5 5 4 4 5 6 6 6 5 5 4 3 2 3 3 3 3 3 4 4 5 5 5 5 5 5 5 5 5 5 6 7 8 8 8 7 7 7 7 7 7 7 8 8 8 9 9 8 11 16 16 16 15 13 10 12 15 10 5 6 5 6 6 6 5 5 5 5 6 5 6 7 8 8 8
Wind_Direction
185 190 190 194 188 187 187 190 193 195 198 197 205 203 199 207 199 205 195 206 194 190 197 203 197 200 208 202 208 199 200 203 206 202 203 208 209 190 223 203 215 221 194 224 239 210 215 232 235 227 243 242 232 236 220 200 207 223 243 212 238 212 203 222 269 284 281 305 305 280 309 329 311 325 280 280 295 292 297 286 296 290 291 321 164
188 186 193 191 193 189 192 188 192 193 198 196 201 202 204 200 204 202 203 198 207 199 193 199 201 200 203 206 214 208 195 208 212 206 205 206 211 215 216 212 213 221 222 222 231 243 214 223 229 227 221 234 237 235 238 227 202 213 196 223 231 239 211 231 252 279 290 276 265 308 304 265 263 254 291 296 293 302 293 295 283 279 301 313 189
188 184 191 190 192 191 195 191 190 193 197 198 201 201 201 201 199 203 208 198 197 212 198 204 194 197 202 202 203 211 205 203 216 218 212 207 214 228 212 202 211 220 222 227 227 223 227 221 224 228 221 213 225 238 243 242 244 237 231 221 221 220 202 195 234 259 270 284 286 268 259 274 279 291 289 283 284 272 272 278 284 298 307 277 290
188 183 187 192 192 191 195 195 193 195 198 200 202 204 201 200 198 204 207 210 195 199 210 205 195 194 198 202 202 208 204 208 207 214 220 216 216 220 228 227 219 221 230 227 221 223 226 227 233 229 229 230 223 231 238 244 236 240 255 264 278 275 277 260 232 242 257 270 268 271 282 288 281 280 271 266 271 271 284 293 284 278 283 291 282
213 180 189 192 193 195 197 200 197 198 201 200 202 204 207 202 197 204 207 213 208 192 197 206 202 194 201 200 203 204 208 209 209 215 214 213 218 218 215 219 219 223 227 231 233 229 227 229 228 228 229 235 228 224 232 237 234 233 234 233 238 239 238 235 234 230 240 253 262 261 266 264 268 268 268 272 276 277 257 262 282 285 280 281 290
191 190 188 193 196 197 199 201 204 202 204 206 203 203 204 210 203 197 209 211 212 209 192 199 203 199 203 203 203 203 206 210 210 216 219 213 211 217 211 216 218 219 221 224 226 227 232 228 228 226 229 229 230 229 229 235 230 227 232 241 241 236 235 237 240 245 251 255 261 268 256 258 257 255 262 269 272 276 287 283 272 260 250 257 274
288 191 193 198 197 202 199 204 206 206 203 211 210 205 206 207 211 206 200 211 211 213 204 196 200 203 201 206 206 203 205 209 210 212 221 223 216 212 219 212 217 218 218 226 226 222 225 228 227 230 233 234 236 233 225 226 237 236 228 230 233 244 244 239 237 242 243 248 251 252 262 260 257 260 248 241 251 267 279 282 277 275 267 263 266
258 249 203 200 201 202 205 204 208 209 207 206 216 214 209 209 207 213 205 204 213 213 215 202 196 204 203 205 208 203 202 207 208 211 213 220 223 216 219 224 218 217 221 221 228 230 223 223 226 223 223 227 232 239 240 237 230 235 233 230 231 234 242 244 243 243 241 246 250 258 261 271 268 273 282 265 257 251 252 259 267 277 282 276 274
245 233 214 211 204 206 204 212 209 205 212 206 210 219 216 209 207 208 212 213 208 215 217 216 204 200 204 204 207 207 204 205 207 206 209 211 221 223 219 221 226 226 223 225 222 229 238 238 231 232 218 204 213 223 242 268 260 240 229 239 241 233 234 244 247 243 249 254 262 263 261 258 258 260 262 259 258 266 272 279 287 288 280 275 261
276 261 268 226 220 214 212 221 217 213 208 209 207 213 220 217 212 208 209 213 216 211 217 219 218 205 203 203 206 208 209 208 202 201 200 208 211 220 219 220 225 228 226 231 237 231 231 237 242 235 224 206 196 200 212 231 243 256 260 234 233 235 238 242 242 243 245 251 252 255 255 255 255 242 246 252 255 251 255 243 255 262 275 281 284
334 320 273 234 235 247 241 223 225 225 211 212 211 213 218 223 220 209 207 210 213 208 215 219 221 219 208 206 207 210 211 213 189 191 198 207 213 214 222 220 219 226 230 229 232 236 238 237 242 241 214 191 193 196 203 210 214 224 241 257 270 261 245 240 239 244 250 247 245 246 252 258 261 272 277 281 281 283 278 280 280 289 285 282 287
318 291 289 271 244 235 240 253 237 225 223 216 215 215 217 222 227 222 216 213 208 216 212 216 221 225 222 216 212 213 216 211 182 186 193 200 209 216 217 222 224 222 226 230 229 232 237 241 240 239 234 229 227 196 204 207 211 216 222 228 236 244 245 251 259 253 244 248 250 253 260 260 267 264 267 268 276 288 306 308 300 290 282 279 278
329 319 307 306 299 260 235 233 239 240 231 221 219 218 218 219 220 222 220 219 216 213 218 214 215 221 227 228 226 221 220 204 181 187 192 197 202 212 223 225 227 229 228 225 231 234 235 235 241 243 250 223 209 222 202 206 210 215 218 224 231 234 239 240 237 240 259 260 258 257 251 258 259 258 260 273 281 272 271 267 272 271 264 269 267
351 293 284 280 286 307 288 264 246 237 240 243 228 222 219 217 219 218 219 214 215 216 218 221 218 216 222 227 230 234 233 196 180 186 193 196 201 204 223 228 231 235 234 234 233 229 227 234 235 238 238 244 238 223 223 217 206 209 219 223 227 227 227 232 235 233 234 244 250 254 252 248 253 255 259 261 261 261 266 269 270 269 270 266 275
348 342 336 320 308 292 288 264 248 243 234 234 240 238 228 223 220 222 220 214 211 211 214 214 216 216 218 221 225 229 232 213 180 188 191 195 200 200 218 228 235 235 236 237 240 241 234 229 232 236 236 235 233 229 227 225 223 218 213 219 222 227 223 220 220 222 221 228 234 241 245 245 247 247 247 245 248 245 248 261 266 272 275 281 281
354 346 337 331 334 338 329 323 300 267 248 238 230 232 236 231 230 226 230 226 218 215 216 221 218 216 218 220 222 226 230 215 184 190 193 195 196 198 212 222 232 238 239 238 236 233 233 238 237 234 235 234 227 220 221 226 229 228 229 228 228 229 231 221 212 211 217 219 223 229 233 236 235 240 242 246 239 229 237 238 240 241 249 257 262
354 345 339 338 338 334 327 316 309 303 274 249 236 233 233 233 232 231 229 234 233 221 217 218 220 222 220 218 223 226 228 216 191 189 192 196 188 202 209 217 224 232 239 239 238 236 235 231 231 237 235 234 228 211 214 213 230 233 234 237 240 244 242 233 201 204 209 219 220 223 232 239 242 243 253 243 243 273 277 264 255 256 261 263 266
347 343 339 337 331 324 318 309 299 297 292 280 264 256 246 242 240 230 232 234 239 239 227 223 220 221 225 224 220 223 228 216 191 191 192 188 187 198 204 212 222 227 233 235 235 236 233 231 229 232 236 236 225 208 206 204 222 231 238 242 244 245 247 250 248 204 206 206 213 217 220 226 235 237 241 250 233 219 227 243 247 249 249 251 259
344 340 335 332 326 322 318 314 307 290 287 286 319 352 321 310 305 308 281 270 258 259 262 244 232 226 226 228 224 225 230 221 190 191 191 185 191 199 202 211 220 226 228 230 229 232 235 228 224 227 232 236 231 208 202 199 221 229 233 238 243 245 247 249 247 254 209 215 231 227 240 239 236 233 228 221 216 210 228 239 246 247 251 253 258
338 335 334 326 323 320 317 316 314 308 295 286 275 178 279 305 320 327 328 304 290 272 261 258 256 242 232 228 227 222 229 234 195 191 187 188 192 199 204 209 222 223 225 228 228 228 229 234 220 214 225 230 233 213 204 203 216 227 231 235 239 241 245 248 252 256 257 213 211 215 221 225 228 227 232 229 220 215 224 230 234 238 243 245 245
331 334 331 328 322 318 320 321 321 315 312 301 291 126 24 310 263 225 230 219 228 236 245 247 244 242 237 236 232 227 226 228 201 186 188 188 193 198 207 212 219 222 223 224 228 229 228 228 237 208 209 218 222 216 205 209 216 224 229 236 237 248 285 253 247 241 249 258 246 222 220 218 223 234 234 228 229 225 220 223 228 229 231 236 245
328 329 327 330 326 320 323 322 314 308 309 315 302 156 168 221 239 224 214 234 237 244 252 256 259 253 244 236 236 237 230 214 227 182 188 190 192 199 208 217 216 220 223 230 228 232 231 230 233 215 200 210 216 217 213 207 215 224 232 235 244 254 264 263 271 266 255 239 238 243 244 238 234 235 237 240 230 222 224 217 215 221 224 232 238
325 322 322 322 326 322 317 318 314 307 306 307 305 281 227 225 214 225 241 248 254 270 268 255 251 251 249 251 252 241 236 227 217 187 187 188 192 197 209 219 212 215 232 232 233 238 234 235 236 222 193 204 210 216 216 213 209 223 233 238 239 244 255 255 258 261 262 265 265 259 239 237 239 239 238 240 243 244 240 232 206 206 221 229 237
317 318 317 317 318 320 316 310 312 307 307 305 297 297 266 258 258 243 241 249 253 255 256 254 249 245 246 246 247 252 248 240 216 183 173 189 191 196 206 218 220 224 229 242 243 241 243 242 234 227 194 200 207 212 215 211 217 223 230 236 239 239 243 247 246 247 252 254 253 254 253 246 244 239 236 238 243 237 240 253 257 222 207 220 230
314 315 315 313 315 316 313 310 313 319 321 314 307 300 286 261 254 251 247 244 250 254 260 264 262 261 267 267 266 266 275 284 267 188 175 183 191 195 203 208 218 224 232 238 251 255 272 333 348 288 202 196 202 207 212 215 218 223 225 231 233 236 232 235 240 239 240 238 238 240 241 240 238 242 244 246 243 242 249 255 249 253 253 232 217
311 312 310 312 314 313 313 314 318 327 321 310 303 292 290 284 276 266 250 251 253 255 260 268 275 291 302 305 314 314 324 322 306 284 218 196 198 199 199 203 209 212 219 232 241 265 302 309 295 15 185 212 204 198 206 210 217 223 230 231 230 231 231 231 230 232 236 236 234 234 235 235 236 234 235 236 239 240 239 236 241 247 240 244 249
306 304 308 311 310 308 314 317 324 317 308 309 303 298 284 277 283 283 277 275 276 277 274 277 286 280 270 263 262 262 257 250 255 270 295 242 214 209 212 218 216 218 228 239 247 252 255 263 279 281 292 203 212 225 223 212 203 213 222 222 225 228 226 226 229 228 228 231 234 235 233 234 237 235 224 220 224 229 224 229 241 239 236 238 241
300 303 304 305 302 306 310 313 310 308 313 316 309 307 309 303 284 271 270 271 274 278 292 297 278 265 270 275 278 277 268 260 249 272 285 271 239 201 191 187 189 199 218 230 228 246 265 298 306 299 277 261 233 233 237 232 223 209 208 211 217 222 230 233 234 235 233 228 232 234 235 231 233 231 230 228 227 221 218 228 228 236 238 236 233
290 296 298 295 297 300 298 304 311 314 314 305 305 313 310 307 311 312 307 285 254 248 228 211 241 253 260 246 255 263 268 273 257 116 203 52 4 345 162 196 199 206 197 180 168 173 157 184 247 257 265 261 260 252 245 241 240 239 237 228 222 220 220 223 227 227 224 224 226 225 228 227 231 231 232 233 228 221 216 219 221 231 235 241 244
287 291 291 292 294 301 311 312 308 310 309 309 311 310 312 300 268 281 294 305 285 268 246 237 236 247 260 258 254 271 282 289 307 284 257 222 169 183 229 238 197 174 155 166 195 222 219 225 225 229 237 247 252 251 247 243 241 241 241 236 236 238 232 223 223 225 220 222 225 224 226 226 228 227 230 233 230 231 222 214 220 218 228 232 239
283 285 288 288 301 313 304 299 305 308 304 304 309 311 308 306 275 236 236 260 276 277 265 255 257 252 239 262 261 248 263 279 286 279 270 261 229 174 176 192 180 186 141 124 196 208 209 214 221 225 232 243 247 245 243 242 241 245 245 238 235 233 233 237 230 222 220 220 221 225 225 225 228 227 230 228 232 232 231 217 214 219 226 231 237
273 278 284 288 293 293 295 297 296 295 301 300 301 305 309 306 310 280 225 233 253 265 270 266 256 246 243 241 257 282 278 276 278 285 276 261 236 208 189 188 202 187 179 183 201 217 214 214 221 224 227 232 236 240 242 241 237 237 242 241 238 229 221 229 229 230 227 223 222 221 223 225 226 228 228 230 228 231 231 230 228 227 226 229 234
264 271 276 284 286 288 289 293 293 294 296 296 294 300 304 306 307 313 299 221 233 248 260 258 253 246 240 244 237 234 252 267 267 266 270 266 284 259 209 205 206 206 161 185 219 213 208 210 213 217 222 231 234 234 234 236 238 240 240 240 237 237 232 216 205 221 227 230 228 228 223 224 226 227 225 228 228 232 229 233 232 234 232 231 230
262 267 273 279 285 289 290 284 286 287 285 283 288 292 294 297 302 307 307 313 290 252 250 256 258 262 264 246 233 232 238 246 260 274 287 300 271 178 175 204 208 183 184 207 213 228 216 221 221 222 226 232 237 238 236 235 234 235 235 236 238 235 230 226 206 207 216 221 227 233 230 229 226 226 230 230 230 231 232 229 230 232 234 235 234
254 264 272 276 276 277 274 276 280 283 285 284 283 284 287 290 294 292 297 300 302 301 307 284 246 208 237 291 280 286 299 302 297 286 277 264 194 197 172 164 155 210 231 237 222 222 223 221 230 229 230 235 237 237 236 234 232 234 231 232 232 232 230 228 231 222 215 219 226 228 230 233 232 232 232 234 235 236 238 238 238 233 233 231 234
255 260 269 272 275 275 276 279 281 281 280 281 281 283 288 286 281 286 290 289 290 296 299 301 305 280 257 272 59 75 4 354 327 277 265 232 186 155 172 215 213 211 205 213 220 224 226 232 235 236 234 238 239 238 236 234 230 234 232 228 227 228 230 231 228 226 224 227 226 226 230 232 231 233 235 235 234 235 240 239 241 238 238 236 232
250 254 256 263 270 280 285 290 289 284 289 287 284 279 273 273 280 285 284 286 289 297 296 304 301 293 242 165 54 353 360 331 321 288 217 213 184 167 203 205 215 206 218 223 222 226 230 236 237 241 242 245 246 247 250 268 273 262 251 238 231 230 232 232 232 231 229 230 231 231 229 235 236 232 232 237 236 235 234 235 237 238 233 238 239
264 277 282 284 300 317 314 298 282 282 275 269 264 266 269 274 279 281 280 280 291 293 293 298 306 300 303 301 35 15 328 301 283 238 126 127 163 208 212 219 211 216 220 224 217 220 236 246 251 260 269 269 272 285 286 273 273 270 267 267 263 255 240 240 238 235 233 237 240 238 235 237 239 240 235 237 245 245 242 240 243 239 225 214 213
266 265 259 259 270 277 279 274 277 278 275 271 273 275 277 280 279 280 281 284 285 286 292 296 294 302 310 343 348 342 325 325 339 316 319 300 243 204 204 203 200 219 249 254 244 224 230 238 242 240 253 269 270 267 277 282 286 283 278 278 274 267 261 245 244 240 239 239 239 241 243 244 242 247 324 297 262 252 247 246 245 244 236 222 210
285 280 267 216 242 251 260 267 270 272 271 274 274 275 277 275 276 280 285 286 286 288 291 291 294 301 350 22 354 344 326 317 315 321 314 334 358 1 357 353 332 272 250 262 276 278 262 273 270 258 252 245 250 253 240 243 257 260 273 282 285 291 278 265 258 256 251 246 245 244 250 252 299 73 224 231 240 245 249 244 244 240 236 232 226
287 285 290 294 286 280 276 273 273 270 270 270 275 276 275 277 279 282 282 282 286 287 288 290 294 310 62 49 36 358 309 298 311 324 344 344 347 357 4 9 5 9 3 359 352 348 343 317 296 299 306 310 277 244 263 260 246 242 243 248 252 251 253 251 248 259 266 261 256 253 249 235 153 234 240 238 242 242 239 236 232 232 232 235 235
282 280 280 278 270 268 270 272 271 274 276 278 275 273 274 275 279 280 280 284 287 290 289 291 294 295 73 76 29 331 297 300 321 332 346 346 336 336 351 18 29 16 3 356 344 338 326 319 316 329 345 357 359 351 349 347 349 331 303 272 247 259 264 262 262 256 259 272 280 279 285 258 217 238 253 269 259 251 243 234 230 232 233 232 229
288 286 287 281 280 277 281 280 283 281 277 277 275 277 278 281 279 278 278 280 285 287 291 293 293 296 315 8 349 309 304 329 323 332 6 360 340 335 342 356 8 5 358 347 345 328 317 311 316 326 345 351 5 353 339 335 326 311 307 306 302 309 313 321 333 343 357 336 319 316 297 202 221 236 242 235 243 253 252 248 245 242 240 233 231
297 291 283 281 280 279 277 278 279 280 286 290 294 291 285 279 276 277 279 281 281 287 292 294 297 306 308 314 320 329 342 336 332 326 343 15 12 352 350 355 351 354 349 350 346 336 328 323 323 325 338 348 357 348 334 329 322 321 324 321 318 326 326 334 339 343 346 342 334 332 330 318 289 266 260 251 253 253 251 246 243 242 241 240 237
288 284 281 279 279 275 277 276 278 281 285 285 278 278 273 272 275 278 280 282 288 294 295 299 304 308 311 315 323 327 329 330 327 326 327 357 18 21 1 351 348 350 355 353 355 347 347 342 335 335 342 349 350 348 342 337 332 331 323 319 319 320 326 327 322 315 315 314 315 315 311 313 310 304 287 274 260 255 252 252 247 245 244 243 244
287 286 285 285 286 284 281 277 282 287 289 287 286 284 284 283 280 281 284 286 291 297 301 304 310 314 316 320 326 328 331 334 337 340 345 358 17 21 21 358 357 4 10 7 3 1 359 355 353 349 348 349 350 351 348 348 345 343 340 338 328 320 318 314 315 310 303 294 280 266 273 279 272 274 281 297 301 293 282 266 251 240 241 242 240
289 283 283 279 280 282 288 291 286 281 280 282 284 284 282 281 284 285 285 291 300 301 303 312 319 320 323 326 331 332 334 335 338 347 352 354 9 21 24 19 17 21 23 24 21 17 13 12 9 7 2 0 358 359 360 358 354 348 350 344 342 336 334 329 319 310 301 293 284 273 267 266 268 267 262 258 261 266 269 265 261 256 251 244 236
289 289 287 287 285 284 284 284 284 288 285 283 283 283 284 286 286 286 290 293 292 299 308 315 318 325 330 333 336 337 341 340 343 346 354 356 8 18 24 24 24 18 24 24 20 16 13 11 8 6 5 4 4 3 4 2 359 354 351 346 346 337 319 309 296 289 286 286 281 281 279 275 272 271 270 264 258 258 256 257 252 250 244 241 230
302 299 296 292 288 288 287 290 290 290 291 296 303 299 288 284 284 288 288 290 296 308 315 319 322 332 335 336 339 343 345 346 348 355 0 2 4 13 26 30 31 33 36 35 27 18 17 18 18 16 13 12 12 16 14 11 6 4 352 349 337 328 323 321 308 297 297 290 281 274 269 269 272 273 272 266 265 262 262 263 259 248 236 234 233
303 299 293 293 292 293 291 288 288 288 292 296 301 300 302 295 292 290 295 299 304 316 324 324 329 339 344 346 349 351 357 2 2 358 0 11 17 23 31 36 37 41 45 43 37 28 25 21 20 18 15 12 15 16 14 14 11 6 359 345 335 337 339 338 333 332 318 301 289 280 298 306 308 302 298 291 289 284 284 289 291 276 260 248 238
307 305 302 302 307 309 305 297 292 291 297 299 304 308 309 306 299 296 302 303 307 321 338 345 353 353 0 5 10 6 10 15 14 7 5 13 24 38 45 45 40 40 49 48 43 33 20 14 14 12 12 8 6 6 13 14 11 6 357 353 353 348 347 346 346 336 333 319 315 347 340 331 321 326 334 345 349 358 12 27 46 44 31 13 353